Location: Bucquoy
(50.1391°N, 2.7097°E)
Time: 03:58:36
(UTC+00:00)

ARIANE 5 R/B - Pass Details

Date: 06 May 2021
Orbit: 748 x 795 km, 98.7° (Epoch: 22 June)

Event Time Altitude Azimuth Distance (km) Brightness Sun altitude
Rises 02:36:02 0° 19° (NNE) 3,301 7.1 -13.5°
Reaches altitude 10° 02:38:29 10° 25° (NNE) 2,361 6.3 -13.2°
Maximum altitude 02:43:30 47° 99° (E) 1,030 3.4 -12.7°
Drops below altitude 10° 02:48:26 10° 173° (S) 2,316 4.6 -12.1°
Enters shadow 02:49:45 - 177° (S) 2,820 5.0 -12.0°
